Location: Missoula
(46.8720°N, 113.9930°W)
Time: 17:45:25
(UTC-06:00)

ISS - Visible Passes

Search period start: 26 May 2018 00:00
Search period end: 05 June 2018 00:00
Orbit: 402 x 407 km, 51.6° (Epoch: 27 May)

Date Brightness Start Highest point End Pass type
(mag) Time Alt. Az. Time Alt. Az. Time Alt. Az.
26 May -2.7 00:56:11 10° WNW 00:59:20 43° NNE 01:00:17 33° ENE visible
26 May -1.1 02:32:43 10° WNW 02:32:54 11° WNW 02:32:54 11° WNW visible
26 May -2.4 22:26:58 10° W 22:30:05 41° NNW 22:33:13 10° ENE visible
27 May -2.3 00:03:58 10° WNW 00:07:02 36° N 00:09:31 14° ENE visible
27 May -2.2 01:40:28 10° WNW 01:42:08 27° WNW 01:42:08 27° WNW visible
27 May -2.1 23:11:40 10° WNW 23:14:41 33° N 23:17:42 10° ENE visible
28 May -3.5 00:48:16 10° WNW 00:51:28 64° NNE 00:51:28 64° NNE visible
28 May -2.1 22:19:17 10° WNW 22:22:19 34° N 22:25:21 10° ENE visible
28 May -2.9 23:56:03 10° WNW 23:59:14 47° NNE 00:00:50 24° ENE visible
29 May -1.5 01:32:37 10° WNW 01:33:28 16° W 01:33:28 16° W visible
29 May -2.5 23:03:49 10° WNW 23:06:54 38° N 23:09:59 10° E visible
30 May -3.3 00:40:18 10° WNW 00:42:52 50° W 00:42:52 50° W visible
30 May -2.2 22:11:30 10° WNW 22:14:32 34° N 22:17:34 10° ENE visible
30 May -3.8 23:48:04 10° WNW 23:51:20 74° NNE 23:52:17 42° E visible
31 May -3.1 22:55:49 10° WNW 22:59:01 52° NNE 23:01:45 13° E visible
01 Jun -2.3 00:32:25 10° WNW 00:34:23 27° WSW 00:34:23 27° WSW visible
01 Jun -2.6 22:03:32 10° WNW 22:06:40 40° NNE 22:09:47 10° E visible
01 Jun -3.8 23:40:02 10° WNW 23:43:16 59° SSW 23:43:51 48° SSE visible
02 Jun -3.9 22:47:44 10° WNW 22:51:01 86° NNE 22:53:21 18° ESE visible
03 Jun -1.5 00:24:54 10° W 00:25:59 15° WSW 00:25:59 15° WSW visible
03 Jun -2.7 23:32:09 10° W 23:35:01 29° SW 23:35:30 27° SSW visible
04 Jun -3.4 22:39:39 10° WNW 22:42:50 49° SSW 22:45:03 17° SE visible
